Time,TemperatureF,DewpointF,PressureIn,WindDirection,WindDirectionDegrees,WindSpeedMPH,WindSpeedGustMPH,Humidity,HourlyPrecipIn,Conditions,Clouds,dailyrainin,SoftwareType,DateUTC
2013-07-14 00:05:00,75.2,74.5,30.34,NW,315,0.0,1.6,97,0.00,,,0.01,fowsr,2013-07-14 04:05:00,
2013-07-14 00:10:00,75.2,74.5,30.34,North,0,0.0,0.7,97,0.00,,,0.01,fowsr,2013-07-14 04:10:00,
2013-07-14 00:15:00,75.2,74.5,30.34,NW,315,0.0,0.7,97,0.00,,,0.00,fowsr,2013-07-14 04:15:00,
2013-07-14 00:20:00,75.2,74.5,30.34,West,270,0.0,1.6,97,0.00,,,0.00,fowsr,2013-07-14 04:20:00,
2013-07-14 00:25:00,75.2,74.5,30.34,North,0,0.0,0.7,97,0.00,,,0.00,fowsr,2013-07-14 04:25:00,
2013-07-14 00:30:00,75.2,74.5,30.34,North,0,0.7,1.6,97,0.00,,,0.00,fowsr,2013-07-14 04:30:00,
2013-07-14 00:35:00,75.2,74.7,30.34,NW,315,0.0,0.7,98,0.00,,,0.00,fowsr,2013-07-14 04:35:00,
2013-07-14 00:40:00,75.4,74.9,30.34,North,0,0.0,1.6,98,0.00,,,0.00,fowsr,2013-07-14 04:40:00,
2013-07-14 00:45:00,75.6,75.1,30.34,North,0,0.0,0.7,98,0.00,,,0.00,fowsr,2013-07-14 04:45:00,
2013-07-14 00:50:00,75.6,75.1,30.34,NW,315,0.0,1.6,98,0.00,,,0.00,fowsr,2013-07-14 04:50:00,
2013-07-14 00:55:00,75.6,75.1,30.34,North,0,0.0,0.7,98,0.00,,,0.00,fowsr,2013-07-14 04:55:00,
2013-07-14 01:00:00,75.6,75.1,30.34,NW,315,0.0,1.6,98,0.00,,,0.00,fowsr,2013-07-14 05:00:00,
2013-07-14 01:05:00,75.6,75.1,30.35,NW,315,0.7,1.6,98,0.00,,,0.00,fowsr,2013-07-14 05:05:00,
2013-07-14 01:10:00,75.6,75.1,30.35,North,0,0.0,0.7,98,0.00,,,0.00,fowsr,2013-07-14 05:10:00,
2013-07-14 01:15:00,75.6,75.1,30.35,NE,45,0.0,0.0,98,0.00,,,0.00,fowsr,2013-07-14 05:15:00,
2013-07-14 01:20:00,75.6,75.1,30.35,SE,135,0.0,1.6,98,0.00,,,0.00,fowsr,2013-07-14 05:20:00,
2013-07-14 01:25:00,75.6,75.1,30.34,North,0,0.7,1.6,98,0.00,,,0.00,fowsr,2013-07-14 05:25:00,
2013-07-14 01:30:00,75.6,75.1,30.34,East,90,0.0,0.7,98,0.00,,,0.00,fowsr,2013-07-14 05:30:00,
2013-07-14 01:35:00,75.6,75.1,30.34,SE,135,0.0,0.7,98,0.00,,,0.00,fowsr,2013-07-14 05:35:00,
2013-07-14 01:40:00,75.6,75.1,30.34,NW,315,0.0,1.6,98,0.00,,,0.00,fowsr,2013-07-14 05:40:00,
2013-07-14 01:45:00,75.6,75.1,30.35,North,0,0.0,0.0,98,0.00,,,0.00,fowsr,2013-07-14 05:45:00,
2013-07-14 01:50:00,75.4,74.9,30.35,South,180,0.0,0.7,98,0.00,,,0.00,fowsr,2013-07-14 05:50:00,
2013-07-14 01:55:00,75.4,74.9,30.34,West,270,0.0,1.6,98,0.00,,,0.00,fowsr,2013-07-14 05:55:00,
2013-07-14 02:05:00,75.6,75.1,30.34,NE,45,1.6,3.1,98,0.00,,,0.00,fowsr,2013-07-14 06:05:00,
2013-07-14 02:10:00,75.6,75.1,30.34,North,0,0.0,0.0,98,0.00,,,0.00,fowsr,2013-07-14 06:10:00,
2013-07-14 02:15:00,75.6,75.1,30.34,North,0,0.0,0.0,98,0.00,,,0.00,fowsr,2013-07-14 06:15:00,
2013-07-14 02:20:00,75.6,75.1,30.34,North,0,0.0,1.6,98,0.00,,,0.00,fowsr,2013-07-14 06:20:00,
2013-07-14 02:25:00,75.7,75.3,30.34,NE,45,0.0,0.7,98,0.00,,,0.00,fowsr,2013-07-14 06:25:00,
2013-07-14 02:30:00,75.7,75.3,30.34,North,0,1.6,2.2,98,0.00,,,0.00,fowsr,2013-07-14 06:30:00,
2013-07-14 02:35:00,75.7,75.3,30.34,North,0,0.7,1.6,98,0.00,,,0.00,fowsr,2013-07-14 06:35:00,
2013-07-14 02:40:00,75.7,75.3,30.33,NW,315,0.7,1.6,98,0.00,,,0.00,fowsr,2013-07-14 06:40:00,
2013-07-14 02:45:00,75.7,75.3,30.33,NE,45,0.7,2.2,98,0.00,,,0.00,fowsr,2013-07-14 06:45:00,
2013-07-14 02:50:00,75.6,75.1,30.34,North,0,0.0,0.0,98,0.00,,,0.00,fowsr,2013-07-14 06:50:00,
2013-07-14 02:55:00,75.6,75.1,30.33,NE,45,0.7,2.2,98,0.00,,,0.00,fowsr,2013-07-14 06:55:00,
2013-07-14 03:00:00,75.0,74.8,30.33,NE,45,0.0,0.0,99,0.00,,,0.00,fowsr,2013-07-14 07:00:00,
2013-07-14 03:10:00,73.8,73.5,30.33,East,90,0.7,1.6,99,0.00,,,0.00,fowsr,2013-07-14 07:10:00,
2013-07-14 03:15:00,72.9,72.1,30.33,NE,45,0.0,0.7,97,0.00,,,0.00,fowsr,2013-07-14 07:15:00,
2013-07-14 03:20:00,72.3,71.6,30.34,NE,45,0.0,0.7,97,0.00,,,0.00,fowsr,2013-07-14 07:20:00,
2013-07-14 03:25:00,72.1,71.4,30.34,SE,135,0.0,0.7,97,0.00,,,0.00,fowsr,2013-07-14 07:25:00,
2013-07-14 03:30:00,72.0,71.3,30.34,NE,45,0.0,0.0,97,0.00,,,0.00,fowsr,2013-07-14 07:30:00,
2013-07-14 03:35:00,72.0,71.3,30.33,North,0,0.0,0.0,97,0.00,,,0.00,fowsr,2013-07-14 07:35:00,
2013-07-14 03:40:00,72.1,71.4,30.34,NW,315,0.0,0.0,97,0.00,,,0.00,fowsr,2013-07-14 07:40:00,
2013-07-14 03:45:00,72.3,71.6,30.33,North,0,0.7,1.6,97,0.00,,,0.00,fowsr,2013-07-14 07:45:00,
2013-07-14 03:50:00,72.5,71.8,30.33,South,180,0.0,0.0,97,0.00,,,0.00,fowsr,2013-07-14 07:50:00,
2013-07-14 03:55:00,72.7,72.0,30.33,North,0,0.0,0.0,97,0.00,,,0.00,fowsr,2013-07-14 07:55:00,
2013-07-14 04:00:00,72.7,72.0,30.34,NE,45,0.0,0.7,97,0.00,,,0.00,fowsr,2013-07-14 08:00:00,
2013-07-14 04:05:00,72.7,72.0,30.33,West,270,0.0,0.7,97,0.00,,,0.00,fowsr,2013-07-14 08:05:00,
2013-07-14 04:10:00,72.7,72.0,30.34,North,0,0.0,0.7,97,0.00,,,0.00,fowsr,2013-07-14 08:10:00,
2013-07-14 04:15:00,72.7,72.0,30.34,North,0,0.0,0.0,97,0.00,,,0.00,fowsr,2013-07-14 08:15:00,
2013-07-14 04:20:00,72.7,72.0,30.34,NW,315,0.0,0.7,97,0.00,,,0.00,fowsr,2013-07-14 08:20:00,
2013-07-14 04:25:00,72.7,72.0,30.34,NW,315,0.0,0.7,97,0.00,,,0.00,fowsr,2013-07-14 08:25:00,
2013-07-14 04:30:00,73.0,72.3,30.34,NE,45,0.0,1.6,97,0.00,,,0.00,fowsr,2013-07-14 08:30:00,
2013-07-14 04:35:00,73.0,72.3,30.34,NE,45,0.7,1.6,97,0.00,,,0.00,fowsr,2013-07-14 08:35:00,
2013-07-14 04:45:00,73.0,72.3,30.34,North,0,0.7,1.6,97,0.00,,,0.00,fowsr,2013-07-14 08:45:00,
2013-07-14 04:50:00,72.7,72.0,30.34,NE,45,0.0,0.7,97,0.00,,,0.00,fowsr,2013-07-14 08:50:00,
2013-07-14 04:55:00,72.7,72.0,30.35,North,0,0.0,1.6,97,0.00,,,0.00,fowsr,2013-07-14 08:55:00,
2013-07-14 05:00:00,72.5,71.8,30.35,North,0,0.0,0.7,97,0.00,,,0.00,fowsr,2013-07-14 09:00:00,
2013-07-14 05:05:00,72.5,71.8,30.35,NW,315,0.0,1.6,97,0.00,,,0.00,fowsr,2013-07-14 09:05:00,
2013-07-14 05:10:00,72.5,71.8,30.34,North,0,0.0,0.0,97,0.00,,,0.00,fowsr,2013-07-14 09:10:00,
2013-07-14 05:15:00,72.5,71.8,30.34,North,0,0.0,0.0,97,0.00,,,0.00,fowsr,2013-07-14 09:15:00,
2013-07-14 05:20:00,72.7,72.0,30.35,North,0,0.0,0.0,97,0.00,,,0.00,fowsr,2013-07-14 09:20:00,
2013-07-14 05:25:00,72.7,72.0,30.34,North,0,0.0,0.0,97,0.00,,,0.00,fowsr,2013-07-14 09:25:00,
2013-07-14 05:30:00,73.0,72.3,30.34,North,0,0.0,0.0,97,0.00,,,0.00,fowsr,2013-07-14 09:30:00,
2013-07-14 05:35:00,73.0,72.3,30.35,East,90,0.0,0.0,97,0.00,,,0.00,fowsr,2013-07-14 09:35:00,
2013-07-14 05:40:00,73.2,72.5,30.35,NE,45,0.0,0.0,97,0.00,,,0.00,fowsr,2013-07-14 09:40:00,
2013-07-14 05:45:00,73.2,72.5,30.35,NW,315,0.0,0.0,97,0.00,,,0.00,fowsr,2013-07-14 09:45:00,
2013-07-14 05:50:00,73.2,72.5,30.36,NW,315,0.0,0.0,97,0.00,,,0.00,fowsr,2013-07-14 09:50:00,
2013-07-14 05:55:00,73.4,73.2,30.36,East,90,0.0,0.0,99,0.00,,,0.00,fowsr,2013-07-14 09:55:00,
2013-07-14 06:00:00,73.4,73.2,30.36,NE,45,0.0,0.0,99,0.00,,,0.00,fowsr,2013-07-14 10:00:00,
2013-07-14 06:05:00,73.6,73.3,30.36,North,0,0.0,0.7,99,0.00,,,0.00,fowsr,2013-07-14 10:05:00,
2013-07-14 06:10:00,73.8,73.5,30.36,NW,315,0.0,0.0,99,0.00,,,0.00,fowsr,2013-07-14 10:10:00,
2013-07-14 06:15:00,73.8,73.5,30.36,North,0,0.0,0.0,99,0.00,,,0.00,fowsr,2013-07-14 10:15:00,
2013-07-14 06:20:00,73.9,73.7,30.36,North,0,0.0,1.6,99,0.00,,,0.00,fowsr,2013-07-14 10:20:00,
2013-07-14 06:25:00,74.1,73.9,30.37,North,0,0.0,0.7,99,0.00,,,0.00,fowsr,2013-07-14 10:25:00,
2013-07-14 06:30:00,74.3,74.1,30.37,North,0,0.0,0.7,99,0.00,,,0.00,fowsr,2013-07-14 10:30:00,
2013-07-14 06:40:00,74.5,74.2,30.37,North,0,0.0,0.7,99,0.00,,,0.00,fowsr,2013-07-14 10:40:00,
2013-07-14 06:45:00,74.5,74.2,30.37,North,0,0.0,0.0,99,0.00,,,0.00,fowsr,2013-07-14 10:45:00,
2013-07-14 06:50:00,74.5,74.2,30.37,North,0,0.0,0.0,99,0.00,,,0.00,fowsr,2013-07-14 10:50:00,
2013-07-14 07:00:00,74.7,74.4,30.37,North,0,0.0,0.7,99,0.00,,,0.00,fowsr,2013-07-14 11:00:00,
2013-07-14 07:05:00,74.7,74.4,30.38,North,0,0.0,0.7,99,0.00,,,0.00,fowsr,2013-07-14 11:05:00,
2013-07-14 07:10:00,74.7,74.4,30.38,NW,315,0.0,0.7,99,0.00,,,0.00,fowsr,2013-07-14 11:10:00,
2013-07-14 07:15:00,74.7,74.4,30.38,North,0,0.0,0.7,99,0.00,,,0.00,fowsr,2013-07-14 11:15:00,
2013-07-14 07:20:00,74.7,74.4,30.38,North,0,0.0,0.7,99,0.00,,,0.00,fowsr,2013-07-14 11:20:00,
2013-07-14 07:25:00,74.7,74.4,30.38,ENE,67,0.0,1.6,99,0.00,,,0.00,fowsr,2013-07-14 11:25:00,
2013-07-14 07:30:00,74.8,74.6,30.38,NE,45,0.7,3.1,99,0.00,,,0.00,fowsr,2013-07-14 11:30:00,
2013-07-14 07:35:00,74.8,74.6,30.38,NE,45,0.0,0.7,99,0.00,,,0.00,fowsr,2013-07-14 11:35:00,
2013-07-14 07:40:00,74.8,74.6,30.39,North,0,0.0,0.7,99,0.00,,,0.00,fowsr,2013-07-14 11:40:00,
2013-07-14 07:45:00,74.8,74.6,30.39,North,0,0.0,0.0,99,0.00,,,0.00,fowsr,2013-07-14 11:45:00,
2013-07-14 07:50:00,75.0,74.8,30.38,SE,135,0.0,0.7,99,0.00,,,0.00,fowsr,2013-07-14 11:50:00,
2013-07-14 07:55:00,75.0,74.8,30.38,East,90,1.6,2.2,99,0.00,,,0.00,fowsr,2013-07-14 11:55:00,
2013-07-14 08:00:00,75.0,74.8,30.38,North,0,0.0,0.0,99,0.00,,,0.00,fowsr,2013-07-14 12:00:00,
2013-07-14 08:05:00,75.2,75.0,30.38,East,90,0.7,1.6,99,0.00,,,0.00,fowsr,2013-07-14 12:05:00,
2013-07-14 08:10:00,75.2,75.0,30.39,North,0,0.0,0.0,99,0.00,,,0.00,fowsr,2013-07-14 12:10:00,
2013-07-14 08:15:00,75.4,75.1,30.39,NE,45,0.7,3.1,99,0.00,,,0.00,fowsr,2013-07-14 12:15:00,
2013-07-14 08:20:00,75.2,75.0,30.39,NE,45,0.7,1.6,99,0.00,,,0.00,fowsr,2013-07-14 12:20:00,
2013-07-14 08:25:00,75.6,75.3,30.39,South,180,0.0,0.0,99,0.00,,,0.00,fowsr,2013-07-14 12:25:00,
2013-07-14 08:30:00,75.7,75.5,30.39,East,90,1.6,2.2,99,0.00,,,0.00,fowsr,2013-07-14 12:30:00,
2013-07-14 08:35:00,75.7,75.5,30.39,NE,45,0.0,0.7,99,0.00,,,0.00,fowsr,2013-07-14 12:35:00,
2013-07-14 08:40:00,76.1,75.9,30.39,North,0,0.0,0.7,99,0.00,,,0.00,fowsr,2013-07-14 12:40:00,
2013-07-14 08:45:00,76.8,76.6,30.39,NE,45,0.7,1.6,99,0.00,,,0.00,fowsr,2013-07-14 12:45:00,
2013-07-14 08:50:00,76.8,76.6,30.39,East,90,1.6,2.2,99,0.00,,,0.00,fowsr,2013-07-14 12:50:00,
2013-07-14 08:55:00,77.0,76.5,30.39,East,90,0.0,1.6,98,0.00,,,0.00,fowsr,2013-07-14 12:55:00,
2013-07-14 09:05:00,77.2,76.7,30.39,North,0,0.0,1.6,98,0.00,,,0.00,fowsr,2013-07-14 13:05:00,
2013-07-14 09:10:00,77.5,76.8,30.39,NW,315,1.6,2.2,97,0.00,,,0.00,fowsr,2013-07-14 13:10:00,
2013-07-14 09:15:00,78.3,77.5,30.39,North,0,0.7,2.2,97,0.00,,,0.00,fowsr,2013-07-14 13:15:00,
2013-07-14 09:20:00,78.3,77.3,30.39,SW,225,1.6,3.1,96,0.00,,,0.00,fowsr,2013-07-14 13:20:00,
2013-07-14 09:30:00,78.4,77.2,30.39,NE,45,1.6,3.1,95,0.00,,,0.00,fowsr,2013-07-14 13:30:00,
2013-07-14 09:35:00,78.8,77.0,30.39,East,90,1.6,3.1,93,0.00,,,0.00,fowsr,2013-07-14 13:35:00,
2013-07-14 09:40:00,79.2,77.1,30.39,North,0,2.2,3.8,92,0.00,,,0.00,fowsr,2013-07-14 13:40:00,
2013-07-14 09:50:00,79.7,77.1,30.39,NE,45,1.6,3.1,90,0.00,,,0.00,fowsr,2013-07-14 13:50:00,
2013-07-14 09:55:00,79.9,76.8,30.39,NE,45,2.2,3.1,88,0.00,,,0.00,fowsr,2013-07-14 13:55:00,
2013-07-14 10:00:00,79.7,76.3,30.39,West,270,1.6,3.1,87,0.00,,,0.00,fowsr,2013-07-14 14:00:00,
2013-07-14 10:05:00,80.2,76.8,30.39,NE,45,1.6,2.2,87,0.00,,,0.00,fowsr,2013-07-14 14:05:00,
2013-07-14 10:10:00,80.1,76.4,30.39,East,90,2.2,3.8,86,0.00,,,0.00,fowsr,2013-07-14 14:10:00,
2013-07-14 10:15:00,79.9,75.9,30.39,East,90,2.2,4.5,85,0.00,,,0.00,fowsr,2013-07-14 14:15:00,
2013-07-14 10:20:00,80.1,76.1,30.39,East,90,2.2,4.5,85,0.00,,,0.00,fowsr,2013-07-14 14:20:00,
2013-07-14 10:25:00,80.4,76.5,30.39,North,0,0.0,0.7,85,0.00,,,0.00,fowsr,2013-07-14 14:25:00,
2013-07-14 10:30:00,81.0,76.7,30.39,East,90,0.7,1.6,84,0.00,,,0.00,fowsr,2013-07-14 14:30:00,
2013-07-14 10:35:00,81.3,76.8,30.39,NE,45,3.8,5.4,83,0.00,,,0.00,fowsr,2013-07-14 14:35:00,
2013-07-14 10:40:00,81.5,76.9,30.39,North,0,0.7,2.2,83,0.00,,,0.00,fowsr,2013-07-14 14:40:00,
2013-07-14 10:45:00,81.9,77.3,30.39,NE,45,3.8,4.5,83,0.00,,,0.00,fowsr,2013-07-14 14:45:00,
2013-07-14 10:50:00,81.9,77.0,30.39,North,0,1.6,2.2,82,0.00,,,0.00,fowsr,2013-07-14 14:50:00,
2013-07-14 10:55:00,82.0,77.2,30.39,SSE,157,0.7,1.6,82,0.00,,,0.00,fowsr,2013-07-14 14:55:00,
2013-07-14 11:00:00,82.2,77.1,30.39,North,0,1.6,2.2,81,0.00,,,0.00,fowsr,2013-07-14 15:00:00,
2013-07-14 11:05:00,81.7,76.5,30.39,East,90,3.8,4.5,81,0.00,,,0.00,fowsr,2013-07-14 15:05:00,
2013-07-14 11:10:00,81.0,75.8,30.39,East,90,0.7,1.6,81,0.00,,,0.00,fowsr,2013-07-14 15:10:00,
2013-07-14 11:15:00,81.1,76.0,30.39,SSE,157,0.7,2.2,81,0.00,,,0.00,fowsr,2013-07-14 15:15:00,
2013-07-14 11:20:00,81.5,76.4,30.39,NE,45,0.7,2.2,81,0.00,,,0.00,fowsr,2013-07-14 15:20:00,
2013-07-14 11:25:00,82.0,77.2,30.39,NE,45,0.7,3.8,82,0.00,,,0.00,fowsr,2013-07-14 15:25:00,
2013-07-14 11:30:00,82.2,76.8,30.39,SE,135,0.7,1.6,80,0.00,,,0.00,fowsr,2013-07-14 15:30:00,
2013-07-14 11:35:00,82.9,77.1,30.38,South,180,0.0,0.7,79,0.00,,,0.00,fowsr,2013-07-14 15:35:00,
2013-07-14 11:40:00,83.3,77.5,30.39,East,90,1.6,2.2,79,0.00,,,0.00,fowsr,2013-07-14 15:40:00,
2013-07-14 11:45:00,83.7,77.8,30.39,East,90,2.2,3.8,79,0.00,,,0.00,fowsr,2013-07-14 15:45:00,
2013-07-14 11:50:00,83.3,76.9,30.39,SE,135,2.2,4.5,77,0.00,,,0.00,fowsr,2013-07-14 15:50:00,
2013-07-14 11:55:00,82.8,76.7,30.39,East,90,3.1,5.4,78,0.00,,,0.00,fowsr,2013-07-14 15:55:00,
2013-07-14 12:00:00,83.1,77.3,30.38,SSE,157,1.6,3.1,79,0.00,,,0.00,fowsr,2013-07-14 16:00:00,
2013-07-14 12:05:00,83.5,77.4,30.38,NE,45,2.2,3.8,78,0.00,,,0.00,fowsr,2013-07-14 16:05:00,
2013-07-14 12:10:00,83.5,77.4,30.38,SE,135,0.7,1.6,78,0.00,,,0.00,fowsr,2013-07-14 16:10:00,
2013-07-14 12:15:00,83.7,77.2,30.38,NE,45,0.7,2.2,77,0.00,,,0.00,fowsr,2013-07-14 16:15:00,
2013-07-14 12:20:00,84.0,77.6,30.38,SSW,202,0.0,0.7,77,0.00,,,0.00,fowsr,2013-07-14 16:20:00,
2013-07-14 12:25:00,84.6,77.4,30.38,NE,45,0.7,1.6,75,0.00,,,0.00,fowsr,2013-07-14 16:25:00,
2013-07-14 12:30:00,84.4,76.9,30.38,East,90,3.1,6.9,74,0.00,,,0.00,fowsr,2013-07-14 16:30:00,
2013-07-14 12:35:00,84.2,76.8,30.38,East,90,2.2,4.5,74,0.00,,,0.00,fowsr,2013-07-14 16:35:00,
2013-07-14 12:45:00,84.4,76.9,30.38,East,90,0.7,1.6,74,0.00,,,0.00,fowsr,2013-07-14 16:45:00,
2013-07-14 12:50:00,84.6,77.1,30.38,NE,45,0.7,1.6,74,0.00,,,0.00,fowsr,2013-07-14 16:50:00,
2013-07-14 12:55:00,85.1,78.0,30.38,East,90,2.2,3.8,75,0.00,,,0.00,fowsr,2013-07-14 16:55:00,
2013-07-14 13:00:00,85.6,78.1,30.38,South,180,0.7,1.6,74,0.00,,,0.00,fowsr,2013-07-14 17:00:00,
2013-07-14 13:05:00,86.0,77.8,30.38,East,90,0.7,1.6,72,0.00,,,0.00,fowsr,2013-07-14 17:05:00,
2013-07-14 13:10:00,86.4,77.8,30.38,East,90,0.7,2.2,71,0.00,,,0.00,fowsr,2013-07-14 17:10:00,
2013-07-14 13:15:00,86.4,77.5,30.38,South,180,1.6,2.2,70,0.00,,,0.00,fowsr,2013-07-14 17:15:00,
2013-07-14 13:20:00,86.5,77.3,30.38,SW,225,1.6,3.1,69,0.00,,,0.00,fowsr,2013-07-14 17:20:00,
2013-07-14 13:25:00,86.7,77.1,30.38,NNE,22,0.7,1.6,68,0.00,,,0.00,fowsr,2013-07-14 17:25:00,
2013-07-14 13:30:00,86.5,76.6,30.38,East,90,0.7,3.8,67,0.00,,,0.00,fowsr,2013-07-14 17:30:00,
2013-07-14 13:35:00,86.0,76.1,30.38,East,90,1.6,3.1,67,0.00,,,0.00,fowsr,2013-07-14 17:35:00,
2013-07-14 13:40:00,86.5,77.0,30.38,South,180,0.7,2.2,68,0.00,,,0.00,fowsr,2013-07-14 17:40:00,
2013-07-14 13:45:00,87.4,77.4,30.38,South,180,1.6,3.8,67,0.00,,,0.00,fowsr,2013-07-14 17:45:00,
2013-07-14 13:50:00,87.6,76.9,30.37,South,180,1.6,3.1,65,0.00,,,0.00,fowsr,2013-07-14 17:50:00,
2013-07-14 13:55:00,88.0,76.8,30.37,WNW,292,2.2,3.1,64,0.00,,,0.00,fowsr,2013-07-14 17:55:00,
2013-07-14 14:00:00,88.3,77.2,30.37,East,90,1.6,3.1,64,0.00,,,0.00,fowsr,2013-07-14 18:00:00,
2013-07-14 14:05:00,87.6,76.9,30.38,East,90,2.2,3.8,65,0.00,,,0.00,fowsr,2013-07-14 18:05:00,
2013-07-14 14:10:00,87.4,76.7,30.37,East,90,1.6,3.1,65,0.00,,,0.00,fowsr,2013-07-14 18:10:00,
2013-07-14 14:15:00,87.3,76.5,30.37,NE,45,1.6,3.1,65,0.00,,,0.00,fowsr,2013-07-14 18:15:00,
2013-07-14 14:20:00,87.8,76.7,30.37,NE,45,1.6,3.1,64,0.00,,,0.00,fowsr,2013-07-14 18:20:00,
2013-07-14 14:25:00,87.8,75.9,30.37,East,90,1.6,3.1,62,0.00,,,0.00,fowsr,2013-07-14 18:25:00,
2013-07-14 14:30:00,87.8,76.3,30.36,SE,135,1.6,3.1,63,0.00,,,0.00,fowsr,2013-07-14 18:30:00,
2013-07-14 14:35:00,88.0,76.1,30.36,NE,45,1.6,3.1,62,0.00,,,0.00,fowsr,2013-07-14 18:35:00,
2013-07-14 14:40:00,88.2,76.2,30.36,NE,45,1.6,2.2,62,0.00,,,0.00,fowsr,2013-07-14 18:40:00,
2013-07-14 14:45:00,88.0,75.7,30.36,North,0,1.6,2.2,61,0.00,,,0.00,fowsr,2013-07-14 18:45:00,
2013-07-14 14:50:00,87.4,75.6,30.36,East,90,2.2,3.1,62,0.00,,,0.00,fowsr,2013-07-14 18:50:00,
2013-07-14 14:55:00,86.7,75.3,30.36,East,90,1.6,2.2,63,0.00,,,0.00,fowsr,2013-07-14 18:55:00,
2013-07-14 15:00:00,86.4,75.3,30.36,NE,45,0.0,1.6,64,0.00,,,0.00,fowsr,2013-07-14 19:00:00,
2013-07-14 15:05:00,86.2,75.9,30.36,East,90,2.2,3.8,66,0.00,,,0.00,fowsr,2013-07-14 19:05:00,
2013-07-14 15:10:00,85.6,76.1,30.36,SE,135,2.2,3.8,68,0.00,,,0.00,fowsr,2013-07-14 19:10:00,
2013-07-14 15:15:00,85.3,76.5,30.36,East,90,1.6,3.1,70,0.00,,,0.00,fowsr,2013-07-14 19:15:00,
2013-07-14 15:20:00,85.6,77.1,30.36,North,0,0.7,1.6,71,0.00,,,0.00,fowsr,2013-07-14 19:20:00,
2013-07-14 15:25:00,86.0,77.5,30.35,NE,45,1.6,3.1,71,0.00,,,0.00,fowsr,2013-07-14 19:25:00,
2013-07-14 15:30:00,86.4,78.2,30.35,North,0,0.7,2.2,72,0.00,,,0.00,fowsr,2013-07-14 19:30:00,
2013-07-14 15:35:00,86.2,77.7,30.35,SE,135,0.0,1.6,71,0.00,,,0.00,fowsr,2013-07-14 19:35:00,
2013-07-14 15:40:00,86.7,77.8,30.35,North,0,2.2,4.5,70,0.00,,,0.00,fowsr,2013-07-14 19:40:00,
2013-07-14 15:45:00,87.4,78.5,30.35,East,90,2.2,3.1,70,0.00,,,0.00,fowsr,2013-07-14 19:45:00,
2013-07-14 15:50:00,87.8,77.4,30.35,NE,45,0.7,3.1,66,0.00,,,0.00,fowsr,2013-07-14 19:50:00,
2013-07-14 15:55:00,88.0,78.0,30.35,NW,315,0.0,0.7,67,0.00,,,0.00,fowsr,2013-07-14 19:55:00,
2013-07-14 16:00:00,88.0,78.0,30.35,North,0,1.6,2.2,67,0.00,,,0.00,fowsr,2013-07-14 20:00:00,
2013-07-14 16:05:00,88.2,78.1,30.35,SSW,202,0.0,1.6,67,0.00,,,0.00,fowsr,2013-07-14 20:05:00,
2013-07-14 16:10:00,88.5,77.7,30.35,East,90,1.6,3.1,65,0.00,,,0.00,fowsr,2013-07-14 20:10:00,
2013-07-14 16:15:00,88.5,78.1,30.35,NW,315,0.7,2.2,66,0.00,,,0.00,fowsr,2013-07-14 20:15:00,
2013-07-14 16:20:00,88.2,77.4,30.35,NW,315,0.7,1.6,65,0.00,,,0.00,fowsr,2013-07-14 20:20:00,
2013-07-14 16:25:00,87.3,77.6,30.35,NW,315,1.6,2.2,68,0.00,,,0.00,fowsr,2013-07-14 20:25:00,
2013-07-14 16:30:00,86.0,76.4,30.35,East,90,0.7,1.6,68,0.00,,,0.00,fowsr,2013-07-14 20:30:00,
2013-07-14 16:35:00,85.1,77.0,30.34,North,0,0.7,2.2,72,0.00,,,0.00,fowsr,2013-07-14 20:35:00,
2013-07-14 16:40:00,85.3,77.8,30.34,North,0,0.7,1.6,74,0.00,,,0.00,fowsr,2013-07-14 20:40:00,
2013-07-14 16:45:00,85.5,77.6,30.35,NE,45,0.7,1.6,73,0.00,,,0.00,fowsr,2013-07-14 20:45:00,
2013-07-14 16:50:00,85.5,77.3,30.34,North,0,0.7,1.6,72,0.00,,,0.00,fowsr,2013-07-14 20:50:00,
2013-07-14 16:55:00,85.3,77.5,30.34,North,0,0.7,2.2,73,0.00,,,0.00,fowsr,2013-07-14 20:55:00,
2013-07-14 17:00:00,85.5,77.6,30.34,NE,45,1.6,3.1,73,0.00,,,0.00,fowsr,2013-07-14 21:00:00,
2013-07-14 17:05:00,84.7,76.6,30.34,NW,315,1.6,3.1,72,0.00,,,0.00,fowsr,2013-07-14 21:05:00,
2013-07-14 17:10:00,84.2,76.4,30.34,North,0,0.0,1.6,73,0.00,,,0.00,fowsr,2013-07-14 21:10:00,
2013-07-14 17:15:00,83.8,76.8,30.34,NW,315,0.0,0.7,75,0.00,,,0.00,fowsr,2013-07-14 21:15:00,
2013-07-14 17:20:00,83.5,76.7,30.34,East,90,0.7,1.6,76,0.00,,,0.00,fowsr,2013-07-14 21:20:00,
2013-07-14 17:25:00,83.1,76.4,30.34,North,0,0.7,1.6,76,0.00,,,0.00,fowsr,2013-07-14 21:25:00,
2013-07-14 17:35:00,82.6,75.9,30.34,North,0,0.7,2.2,76,0.00,,,0.00,fowsr,2013-07-14 21:35:00,
2013-07-14 17:40:00,82.0,75.7,30.34,North,0,0.0,1.6,77,0.00,,,0.00,fowsr,2013-07-14 21:40:00,
2013-07-14 17:45:00,81.9,75.8,30.34,North,0,0.7,1.6,78,0.00,,,0.00,fowsr,2013-07-14 21:45:00,
2013-07-14 17:50:00,82.0,76.0,30.34,North,0,0.7,2.2,78,0.00,,,0.00,fowsr,2013-07-14 21:50:00,
2013-07-14 17:55:00,82.2,76.1,30.34,North,0,0.7,1.6,78,0.00,,,0.00,fowsr,2013-07-14 21:55:00,
2013-07-14 18:00:00,82.4,76.0,30.33,North,0,0.7,2.2,77,0.00,,,0.00,fowsr,2013-07-14 22:00:00,
2013-07-14 18:05:00,82.0,75.7,30.33,East,90,0.7,2.2,77,0.00,,,0.00,fowsr,2013-07-14 22:05:00,
2013-07-14 18:10:00,82.2,75.8,30.33,North,0,0.0,1.6,77,0.00,,,0.00,fowsr,2013-07-14 22:10:00,
2013-07-14 18:15:00,83.1,76.4,30.33,North,0,1.6,3.1,76,0.00,,,0.00,fowsr,2013-07-14 22:15:00,
2013-07-14 18:20:00,83.7,76.3,30.33,North,0,1.6,3.1,74,0.00,,,0.00,fowsr,2013-07-14 22:20:00,
2013-07-14 18:25:00,83.5,76.1,30.33,North,0,0.7,1.6,74,0.00,,,0.00,fowsr,2013-07-14 22:25:00,
2013-07-14 18:30:00,83.3,75.9,30.33,East,90,1.6,3.1,74,0.00,,,0.00,fowsr,2013-07-14 22:30:00,
2013-07-14 18:35:00,83.8,76.8,30.33,NE,45,0.7,1.6,75,0.00,,,0.00,fowsr,2013-07-14 22:35:00,
2013-07-14 18:40:00,84.0,76.6,30.33,North,0,0.0,0.7,74,0.00,,,0.00,fowsr,2013-07-14 22:40:00,
2013-07-14 18:45:00,84.4,76.6,30.33,West,270,1.6,2.2,73,0.00,,,0.00,fowsr,2013-07-14 22:45:00,
2013-07-14 18:50:00,84.0,76.3,30.33,North,0,1.6,2.2,73,0.00,,,0.00,fowsr,2013-07-14 22:50:00,
2013-07-14 18:55:00,83.8,76.4,30.33,North,0,1.6,2.2,74,0.00,,,0.00,fowsr,2013-07-14 22:55:00,
2013-07-14 19:00:00,83.5,76.1,30.33,NE,45,0.7,2.2,74,0.00,,,0.00,fowsr,2013-07-14 23:00:00,
2013-07-14 19:05:00,83.5,76.4,30.33,NW,315,0.7,1.6,75,0.00,,,0.00,fowsr,2013-07-14 23:05:00,
2013-07-14 19:10:00,83.5,76.1,30.33,NW,315,0.7,1.6,74,0.00,,,0.00,fowsr,2013-07-14 23:10:00,
2013-07-14 19:15:00,83.1,76.1,30.33,West,270,0.0,1.6,75,0.00,,,0.00,fowsr,2013-07-14 23:15:00,
2013-07-14 19:20:00,82.9,75.9,30.33,NE,45,0.7,1.6,75,0.00,,,0.00,fowsr,2013-07-14 23:20:00,
2013-07-14 19:25:00,82.8,75.7,30.33,East,90,1.6,3.1,75,0.00,,,0.00,fowsr,2013-07-14 23:25:00,
2013-07-14 19:30:00,82.2,75.5,30.33,SW,225,1.6,2.2,76,0.00,,,0.00,fowsr,2013-07-14 23:30:00,
2013-07-14 19:35:00,81.9,75.8,30.34,SE,135,0.7,1.6,78,0.00,,,0.00,fowsr,2013-07-14 23:35:00,
2013-07-14 19:40:00,81.3,75.6,30.33,NE,45,0.7,2.2,79,0.00,,,0.00,fowsr,2013-07-14 23:40:00,
2013-07-14 19:45:00,80.6,75.5,30.34,NW,315,1.6,2.2,81,0.00,,,0.00,fowsr,2013-07-14 23:45:00,
2013-07-14 19:50:00,79.9,75.4,30.33,North,0,0.7,1.6,83,0.00,,,0.00,fowsr,2013-07-14 23:50:00,
2013-07-14 19:55:00,79.2,75.0,30.33,North,0,1.6,3.1,84,0.00,,,0.00,fowsr,2013-07-14 23:55:00,
2013-07-14 20:00:00,78.8,74.9,30.33,North,0,0.0,1.6,85,0.00,,,0.00,fowsr,2013-07-15 00:00:00,
2013-07-14 20:05:00,78.4,75.1,30.33,North,0,0.7,1.6,87,0.00,,,0.00,fowsr,2013-07-15 00:05:00,
2013-07-14 20:10:00,78.1,75.0,30.33,North,0,0.0,0.7,88,0.00,,,0.00,fowsr,2013-07-15 00:10:00,
2013-07-14 20:15:00,77.7,74.7,30.34,East,90,0.7,1.6,88,0.00,,,0.00,fowsr,2013-07-15 00:15:00,
2013-07-14 20:20:00,77.5,74.7,30.34,North,0,0.0,0.7,89,0.00,,,0.00,fowsr,2013-07-15 00:20:00,
2013-07-14 20:25:00,77.4,74.6,30.34,East,90,0.0,1.6,89,0.00,,,0.00,fowsr,2013-07-15 00:25:00,
2013-07-14 20:30:00,77.2,74.7,30.34,SE,135,0.7,2.2,90,0.00,,,0.00,fowsr,2013-07-15 00:30:00,
2013-07-14 20:35:00,77.0,74.5,30.34,North,0,0.0,0.7,90,0.00,,,0.00,fowsr,2013-07-15 00:35:00,
2013-07-14 20:40:00,76.8,74.6,30.34,North,0,0.0,1.6,91,0.00,,,0.00,fowsr,2013-07-15 00:40:00,
2013-07-14 20:45:00,76.6,74.6,30.34,North,0,0.0,0.0,92,0.00,,,0.00,fowsr,2013-07-15 00:45:00,
2013-07-14 20:50:00,76.5,74.5,30.34,North,0,0.0,0.7,92,0.00,,,0.00,fowsr,2013-07-15 00:50:00,
2013-07-14 20:55:00,76.3,74.5,30.34,North,0,0.7,1.6,93,0.00,,,0.00,fowsr,2013-07-15 00:55:00,
2013-07-14 21:00:00,76.3,74.5,30.34,NW,315,0.0,0.7,93,0.00,,,0.00,fowsr,2013-07-15 01:00:00,
2013-07-14 21:10:00,76.1,74.6,30.34,NW,315,0.0,1.6,94,0.00,,,0.00,fowsr,2013-07-15 01:10:00,
2013-07-14 21:15:00,76.1,74.6,30.34,NW,315,0.0,1.6,94,0.00,,,0.00,fowsr,2013-07-15 01:15:00,
2013-07-14 21:20:00,75.9,74.4,30.34,East,90,0.7,2.2,94,0.00,,,0.00,fowsr,2013-07-15 01:20:00,
2013-07-14 21:25:00,75.9,74.4,30.34,North,0,0.0,0.7,94,0.00,,,0.00,fowsr,2013-07-15 01:25:00,
2013-07-14 21:30:00,75.9,74.4,30.34,North,0,0.0,0.7,94,0.00,,,0.00,fowsr,2013-07-15 01:30:00,
2013-07-14 21:35:00,75.9,74.4,30.34,North,0,0.0,0.7,94,0.00,,,0.00,fowsr,2013-07-15 01:35:00,
2013-07-14 21:40:00,75.7,74.3,30.34,North,0,0.0,0.0,94,0.00,,,0.00,fowsr,2013-07-15 01:40:00,
2013-07-14 21:45:00,75.7,74.3,30.34,NW,315,0.7,1.6,94,0.00,,,0.00,fowsr,2013-07-15 01:45:00,
2013-07-14 21:50:00,75.7,74.3,30.34,NW,315,0.0,0.7,94,0.00,,,0.00,fowsr,2013-07-15 01:50:00,
2013-07-14 21:55:00,75.7,74.0,30.34,North,0,0.0,0.0,93,0.00,,,0.00,fowsr,2013-07-15 01:55:00,
2013-07-14 22:00:00,75.6,73.8,30.35,NE,45,0.0,1.6,93,0.00,,,0.00,fowsr,2013-07-15 02:00:00,
2013-07-14 22:05:00,75.6,73.8,30.35,North,0,0.0,1.6,93,0.00,,,0.00,fowsr,2013-07-15 02:05:00,
2013-07-14 22:10:00,75.4,73.9,30.34,North,0,0.0,0.7,94,0.00,,,0.00,fowsr,2013-07-15 02:10:00,
2013-07-14 22:20:00,75.2,73.7,30.35,West,270,0.0,0.7,94,0.00,,,0.00,fowsr,2013-07-15 02:20:00,
2013-07-14 22:25:00,75.2,73.7,30.35,NW,315,0.0,0.7,94,0.00,,,0.00,fowsr,2013-07-15 02:25:00,
2013-07-14 22:30:00,75.2,73.7,30.35,NW,315,0.0,0.7,94,0.00,,,0.00,fowsr,2013-07-15 02:30:00,
2013-07-14 22:35:00,75.2,73.7,30.35,North,0,0.0,0.0,94,0.00,,,0.00,fowsr,2013-07-15 02:35:00,
2013-07-14 22:40:00,75.2,73.7,30.34,NE,45,0.0,0.7,94,0.00,,,0.00,fowsr,2013-07-15 02:40:00,
2013-07-14 22:45:00,75.2,73.7,30.35,NE,45,0.0,0.7,94,0.00,,,0.00,fowsr,2013-07-15 02:45:00,
2013-07-14 22:50:00,75.2,73.7,30.34,NW,315,0.0,0.7,94,0.00,,,0.00,fowsr,2013-07-15 02:50:00,
2013-07-14 22:55:00,75.2,73.7,30.34,North,0,0.0,0.7,94,0.00,,,0.00,fowsr,2013-07-15 02:55:00,
2013-07-14 23:00:00,75.2,73.7,30.34,North,0,0.7,2.2,94,0.00,,,0.00,fowsr,2013-07-15 03:00:00,
2013-07-14 23:05:00,75.0,73.8,30.34,NW,315,0.0,0.7,95,0.00,,,0.00,fowsr,2013-07-15 03:05:00,
2013-07-14 23:10:00,75.0,73.8,30.34,North,0,0.0,0.7,95,0.00,,,0.00,fowsr,2013-07-15 03:10:00,
2013-07-14 23:15:00,75.0,73.8,30.34,North,0,0.0,0.7,95,0.00,,,0.00,fowsr,2013-07-15 03:15:00,
2013-07-14 23:20:00,75.0,73.8,30.34,North,0,0.0,0.7,95,0.00,,,0.00,fowsr,2013-07-15 03:20:00,
2013-07-14 23:25:00,75.0,73.8,30.34,North,0,0.0,0.0,95,0.00,,,0.00,fowsr,2013-07-15 03:25:00,
2013-07-14 23:30:00,75.0,73.8,30.34,SSE,157,0.0,0.7,95,0.00,,,0.00,fowsr,2013-07-15 03:30:00,
2013-07-14 23:35:00,75.0,73.8,30.34,North,0,0.0,0.7,95,0.00,,,0.00,fowsr,2013-07-15 03:35:00,
2013-07-14 23:40:00,75.0,73.8,30.34,North,0,0.0,0.7,95,0.00,,,0.00,fowsr,2013-07-15 03:40:00,
2013-07-14 23:45:00,75.0,73.8,30.33,North,0,0.0,0.7,95,0.00,,,0.00,fowsr,2013-07-15 03:45:00,
2013-07-14 23:50:00,75.0,73.8,30.34,NW,315,0.0,0.7,95,0.00,,,0.00,fowsr,2013-07-15 03:50:00,
2013-07-14 23:55:00,75.0,73.8,30.34,North,0,0.0,0.7,95,0.00,,,0.00,fowsr,2013-07-15 03:55:00,